{"data":{"norad_id":62310,"intl_designator":"2024-239K","name":"STARLINK-32696","alt_names":[],"object_type":"PAYLOAD","status":"ACTIVE","operator":null,"country":"US","launch_date":"2024-12-13","launch_site_code":"AFWTR","launch_vehicle":null,"mission":null,"orbit_class":"UNKNOWN","rcs_meters":null,"size_class":null,"mass_kg":null,"dimensions":null,"purposes":["comms"],"wikipedia_slug":null,"has_3d_model":false,"image_url":null,"decayed_at":null,"tle_current":{"epoch":"2026-05-24T12:08:20.484960Z","epoch_age_seconds":117055,"freshness":"FRESH","line1":"1 62310U 24239K   26144.50579265  .00022949  00000+0  68836-3 0  9997","line2":"2 62310  53.1589 201.6272 0001133  83.4903 276.6229 15.34394805 80992","mean_motion":15.34394805,"eccentricity":0.0001133,"inclination_deg":53.1589,"raan_deg":201.6272,"arg_perigee_deg":83.4903,"mean_anomaly_deg":276.6229,"bstar":0.00068836,"rev_number":8099,"period_min":93.848075821659,"perigee_km":461.94361193682,"apogee_km":463.49374983411,"semimajor_km":6840.8556808855,"source":"CELESTRAK","updated_at":"2026-05-25T13:38:19.648921Z"}}}